P/2018 L5 ( Leonard )

Japanese version
Home page
Updated on October 28, 2018

---------------------------------------------------------------------

* Profile

Discovery Date June 14, 2018
Magnitude 18.5 mag
Discoverer G. J. Leonard (Mount Lemmon)

* Pictures

* Orbital Elements

Epoch 2018 May 2.0 TT = JDT 2458240.5
T 2018 May 4.44928 TT                                   MPCW
q   2.3032465            (2000.0)            P               Q
n   0.14284166     Peri.   93.62368     +0.67877271     +0.73394488
a   3.6243723      Node   219.16068     -0.68812855     +0.62412718
e   0.3645116      Incl.    2.20908     -0.25641120     +0.26793690
P   6.90
From 152 observations 2018 June 8-Oct. 15, mean residual 0".5.

* Magnitudes Graph

        m1 = 13.5 + 5 log d + 10.0 log r

---------------------------------------------------------------------

The orbital elements are published on M.P.E.C. 2018-U70.
The magnitudes graphs are made with Comet for Windows.

---------------------------------------------------------------------

Copyright(C) Seiichi Yoshida (comet@aerith.net). All rights reserved.